| time (UTC) | temp C | wind direction | speed KPH | gust KPH | rain 1hr cm | rain 24hr cm | rain mn cm | humidity % | barometer mb |
| 20260906161537 | 24 | 112 | 11.3 | 24.1 | 0.00 | 0.00 | 0.00 | 75 | 1020.0 |
| 20260906161010 | 24 | 155 | 12.9 | 22.5 | 0.00 | 0.00 | 0.00 | 75 | 1020.0 |
| 20260906160513 | 24 | 154 | 11.3 | 19.3 | 0.00 | 0.00 | 0.00 | 77 | 1020.0 |
| 20260906160022 | 23 | 146 | 8.0 | 17.7 | 0.00 | 0.00 | 0.00 | 77 | 1019.9 |
| 20260906155507 | 23 | 134 | 4.8 | 19.3 | 0.00 | 0.00 | 0.00 | 79 | 1020.0 |
| 20260906155010 | 23 | 103 | 4.8 | 22.5 | 0.00 | 0.00 | 0.00 | 80 | 1020.2 |
| 20260906154517 | 23 | 155 | 12.9 | 22.5 | 0.00 | 0.00 | 0.00 | 80 | 1020.2 |
| 20260906154009 | 23 | 123 | 9.7 | 20.9 | 0.00 | 0.00 | 0.00 | 80 | 1020.3 |
| 20260906153510 | 23 | 165 | 6.4 | 17.7 | 0.00 | 0.00 | 0.00 | 81 | 1020.3 |
| 20260906153038 | 22 | 149 | 4.8 | 17.7 | 0.00 | 0.00 | 0.00 | 81 | 1020.4 |
| 20260906152511 | 22 | 127 | 6.4 | 17.7 | 0.00 | 0.00 | 0.00 | 81 | 1020.4 |
| 20260906152011 | 22 | 123 | 9.7 | 19.3 | 0.00 | 0.00 | 0.00 | 81 | 1020.5 |
| 20260906151523 | 22 | 113 | 11.3 | 19.3 | 0.00 | 0.00 | 0.00 | 81 | 1020.4 |
| 20260906151013 | 22 | 123 | 6.4 | 17.7 | 0.00 | 0.00 | 0.00 | 83 | 1020.3 |
| 20260906150514 | 22 | 127 | 6.4 | 20.9 | 0.00 | 0.00 | 0.00 | 84 | 1020.3 |
| 20260906150015 | 22 | 132 | 14.5 | 32.2 | 0.00 | 0.00 | 0.00 | 83 | 1020.2 |
| 20260906145514 | 22 | 117 | 14.5 | 32.2 | 0.00 | 0.00 | 0.00 | 83 | 1020.1 |
| 20260906145015 | 22 | 184 | 11.3 | 19.3 | 0.00 | 0.00 | 0.00 | 85 | 1020.1 |
| 20260906144518 | 21 | 148 | 11.3 | 19.3 | 0.00 | 0.00 | 0.00 | 86 | 1020.0 |
| 20260906144014 | 21 | 144 | 9.7 | 19.3 | 0.00 | 0.00 | 0.00 | 86 | 1020.1 |
| 20260906143513 | 21 | 139 | 11.3 | 19.3 | 0.00 | 0.00 | 0.00 | 87 | 1020.2 |
| 20260906143018 | 21 | 219 | 6.4 | 12.9 | 0.00 | 0.00 | 0.00 | 87 | 1020.3 |
| 20260906142514 | 21 | 139 | 6.4 | 17.7 | 0.00 | 0.00 | 0.00 | 88 | 1020.3 |
| 20260906142015 | 21 | 127 | 9.7 | 17.7 | 0.00 | 0.00 | 0.00 | 88 | 1020.3 |
| 20260906141526 | 21 | 174 | 9.7 | 17.7 | 0.00 | 0.00 | 0.00 | 89 | 1020.2 |
| 20260906141015 | 21 | 162 | 4.8 | 20.9 | 0.00 | 0.00 | 0.00 | 90 | 1020.2 |
| 20260906140511 | 21 | 148 | 6.4 | 20.9 | 0.00 | 0.00 | 0.00 | 90 | 1020.1 |
| 20260906140029 | 21 | 105 | 6.4 | 14.5 | 0.00 | 0.00 | 0.00 | 91 | 1020.0 |
| 20260906135512 | 20 | 178 | 3.2 | 14.5 | 0.00 | 0.00 | 0.00 | 91 | 1020.1 |
| 20260906135009 | 20 | 162 | 6.4 | 14.5 | 0.00 | 0.00 | 0.00 | 92 | 1020.1 |
| 20260906134525 | 20 | 117 | 6.4 | 12.9 | 0.00 | 0.00 | 0.00 | 93 | 1020.0 |
| 20260906134013 | 20 | 121 | 3.2 | 17.7 | 0.00 | 0.00 | 0.00 | 93 | 1019.8 |
| 20260906133510 | 20 | 114 | 12.9 | 17.7 | 0.00 | 0.00 | 0.00 | 93 | 1019.8 |
| 20260906133016 | 20 | 136 | 6.4 | 17.7 | 0.00 | 0.00 | 0.00 | 94 | 1019.7 |
| 20260906132509 | 20 | 136 | 4.8 | 14.5 | 0.00 | 0.00 | 0.00 | 94 | 1019.7 |
| 20260906132014 | 20 | 131 | 9.7 | 14.5 | 0.00 | 0.00 | 0.00 | 94 | 1019.7 |
| 20260906131523 | 20 | 125 | 4.8 | 12.9 | 0.00 | 0.00 | 0.00 | 95 | 1019.7 |
| 20260906131013 | 20 | 115 | 4.8 | 12.9 | 0.00 | 0.00 | 0.00 | 95 | 1019.7 |
| 20260906130516 | 19 | 103 | 3.2 | 14.5 | 0.00 | 0.00 | 0.00 | 95 | 1019.7 |
| 20260906130026 | 19 | 132 | 6.4 | 14.5 | 0.00 | 0.00 | 0.00 | 95 | 1019.7 |
| 20260906125513 | 19 | 115 | 4.8 | 14.5 | 0.00 | 0.00 | 0.00 | 95 | 1019.8 |
| 20260906125016 | 19 | 182 | 4.8 | 14.5 | 0.00 | 0.00 | 0.00 | 95 | 1019.6 |
| 20260906124527 | 19 | 173 | 4.8 | 11.3 | 0.00 | 0.00 | 0.00 | 95 | 1019.6 |
| 20260906124008 | 19 | 136 | 6.4 | 11.3 | 0.00 | 0.00 | 0.00 | 95 | 1019.6 |
| 20260906123511 | 19 | 120 | 4.8 | 9.7 | 0.00 | 0.00 | 0.00 | 95 | 1019.6 |
| 20260906123030 | 18 | 125 | 3.2 | 9.7 | 0.00 | 0.00 | 0.00 | 95 | 1019.6 |
| 20260906122517 | 18 | 123 | 4.8 | 8.0 | 0.00 | 0.00 | 0.00 | 95 | 1019.6 |
| 20260906122011 | 18 | 132 | 4.8 | 8.0 | 0.00 | 0.00 | 0.00 | 94 | 1019.5 |
| 20260906121532 | 18 | 129 | 1.6 | 4.8 | 0.00 | 0.00 | 0.00 | 94 | 1019.4 |
| 20260906121019 | 18 | 95 | 3.2 | 3.2 | 0.00 | 0.00 | 0.00 | 94 | 1019.4 |
| 20260906120516 | 18 | 95 | 1.6 | 3.2 | 0.00 | 0.00 | 0.00 | 94 | 1019.3 |
| 20260906120023 | 18 | 82 | 0.0 | 6.4 | 0.00 | 0.00 | 0.00 | 94 | 1019.2 |
| 20260906115515 | 18 | 57 | 1.6 | 6.4 | 0.00 | 0.00 | 0.00 | 94 | 1019.2 |
| 20260906115017 | 18 | 79 | 3.2 | 11.3 | 0.00 | 0.00 | 0.00 | 94 | 1019.1 |
| 20260906114528 | 18 | 95 | 8.0 | 11.3 | 0.00 | 0.00 | 0.00 | 93 | 1019.1 |
| 20260906114013 | 18 | 145 | 4.8 | 9.7 | 0.00 | 0.00 | 0.00 | 92 | 1019.0 |
| 20260906113515 | 18 | 109 | 3.2 | 6.4 | 0.00 | 0.00 | 0.00 | 92 | 1019.0 |
| 20260906113027 | 18 | 122 | 3.2 | 6.4 | 0.00 | 0.00 | 0.00 | 92 | 1019.0 |
| 20260906112515 | 18 | 90 | 3.2 | 3.2 | 0.00 | 0.00 | 0.00 | 92 | 1019.1 |
| 20260906112013 | 18 | 88 | 0.0 | 0.0 | 0.00 | 0.00 | 0.00 | 91 | 1019.1 |
| 20260906111536 | 18 | 67 | 0.0 | 0.0 | 0.00 | 0.00 | 0.00 | 92 | 1019.1 |
| 20260906111011 | 18 | 74 | 0.0 | 0.0 | 0.00 | 0.00 | 0.00 | 92 | 1019.2 |
| 20260906110513 | 18 | 59 | 0.0 | 0.0 | 0.00 | 0.00 | 0.00 | 92 | 1019.0 |
| 20260906110023 | 19 | 56 | 0.0 | 0.0 | 0.00 | 0.00 | 0.00 | 91 | 1018.9 |
| 20260906105514 | 19 | 57 | 0.0 | 0.0 | 0.00 | 0.00 | 0.00 | 92 | 1018.9 |
| 20260906105015 | 19 | 57 | 0.0 | 0.0 | 0.00 | 0.00 | 0.00 | 92 | 1018.8 |
| 20260906104533 | 19 | 57 | 0.0 | 0.0 | 0.00 | 0.00 | 0.00 | 92 | 1018.7 |
| 20260906104016 | 19 | 57 | 0.0 | 0.0 | 0.00 | 0.00 | 0.00 | 92 | 1018.7 |
| 20260906103513 | 19 | 57 | 0.0 | 0.0 | 0.00 | 0.00 | 0.00 | 92 | 1018.7 |
| 20260906103030 | 20 | 57 | 0.0 | 0.0 | 0.00 | 0.00 | 0.00 | 92 | 1018.6 |
| 20260906102519 | 20 | 57 | 0.0 | 3.2 | 0.00 | 0.00 | 0.00 | 92 | 1018.6 |
| 20260906102019 | 20 | 57 | 0.0 | 3.2 | 0.00 | 0.00 | 0.00 | 92 | 1018.6 |
| 20260906101534 | 20 | 116 | 0.0 | 3.2 | 0.00 | 0.00 | 0.00 | 92 | 1018.5 |
| 20260906101017 | 20 | 123 | 0.0 | 6.4 | 0.00 | 0.00 | 0.00 | 92 | 1018.4 |
| 20260906100520 | 20 | 123 | 3.2 | 6.4 | 0.00 | 0.00 | 0.00 | 92 | 1018.4 |
| 20260906100030 | 20 | 117 | 3.2 | 6.4 | 0.00 | 0.00 | 0.00 | 92 | 1018.3 |
| 20260906095512 | 20 | 94 | 1.6 | 6.4 | 0.00 | 0.00 | 0.00 | 92 | 1018.2 |
| 20260906095012 | 20 | 80 | 1.6 | 6.4 | 0.00 | 0.00 | 0.00 | 92 | 1018.1 |
| 20260906094527 | 20 | 81 | 3.2 | 4.8 | 0.00 | 0.00 | 0.00 | 92 | 1018.1 |
| 20260906094018 | 20 | 87 | 1.6 | 4.8 | 0.00 | 0.00 | 0.00 | 92 | 1018.1 |
| 20260906093516 | 20 | 115 | 1.6 | 4.8 | 0.00 | 0.00 | 0.00 | 92 | 1018.0 |
| 20260906093029 | 20 | 113 | 0.0 | 6.4 | 0.00 | 0.00 | 0.00 | 92 | 1018.0 |
| 20260906092516 | 20 | 90 | 3.2 | 9.7 | 0.00 | 0.00 | 0.00 | 92 | 1017.9 |
| 20260906092016 | 20 | 117 | 4.8 | 11.3 | 0.00 | 0.00 | 0.00 | 92 | 1017.9 |
| 20260906091532 | 20 | 114 | 6.4 | 16.1 | 0.00 | 0.00 | 0.00 | 92 | 1017.9 |
| 20260906091014 | 20 | 138 | 6.4 | 16.1 | 0.00 | 0.00 | 0.00 | 92 | 1017.9 |
| 20260906090515 | 20 | 128 | 4.8 | 12.9 | 0.00 | 0.00 | 0.00 | 92 | 1017.9 |
| 20260906090042 | 20 | 119 | 6.4 | 11.3 | 0.00 | 0.00 | 0.00 | 91 | 1017.9 |
| 20260906085519 | 20 | 106 | 3.2 | 9.7 | 0.00 | 0.00 | 0.00 | 92 | 1017.9 |
| 20260906085015 | 20 | 111 | 4.8 | 9.7 | 0.00 | 0.00 | 0.00 | 91 | 1017.9 |
| 20260906084528 | 20 | 105 | 3.2 | 9.7 | 0.00 | 0.00 | 0.00 | 91 | 1017.9 |
| 20260906084021 | 20 | 119 | 3.2 | 9.7 | 0.00 | 0.00 | 0.00 | 91 | 1017.9 |
| 20260906083515 | 20 | 82 | 4.8 | 11.3 | 0.00 | 0.00 | 0.00 | 91 | 1017.8 |
| 20260906083026 | 20 | 98 | 4.8 | 11.3 | 0.00 | 0.00 | 0.00 | 91 | 1017.9 |
| 20260906082516 | 20 | 117 | 4.8 | 11.3 | 0.00 | 0.00 | 0.00 | 91 | 1017.9 |
| 20260906082016 | 20 | 120 | 3.2 | 8.0 | 0.00 | 0.00 | 0.00 | 91 | 1017.8 |
| 20260906081531 | 20 | 97 | 3.2 | 9.7 | 0.00 | 0.00 | 0.00 | 91 | 1017.9 |
| 20260906081016 | 20 | 89 | 3.2 | 9.7 | 0.00 | 0.00 | 0.00 | 91 | 1018.0 |
| 20260906080518 | 20 | 123 | 4.8 | 12.9 | 0.00 | 0.00 | 0.00 | 91 | 1018.0 |
| 20260906080037 | 20 | 156 | 6.4 | 12.9 | 0.00 | 0.00 | 0.00 | 91 | 1018.0 |
| 20260906075519 | 20 | 138 | 4.8 | 11.3 | 0.00 | 0.00 | 0.00 | 91 | 1017.9 |
| 20260906075016 | 20 | 122 | 6.4 | 11.3 | 0.00 | 0.00 | 0.00 | 91 | 1018.0 |
| 20260906074533 | 20 | 101 | 6.4 | 11.3 | 0.00 | 0.00 | 0.00 | 91 | 1018.0 |
| 20260906074016 | 20 | 95 | 4.8 | 9.7 | 0.00 | 0.00 | 0.00 | 91 | 1018.1 |
| 20260906073514 | 20 | 93 | 3.2 | 8.0 | 0.00 | 0.00 | 0.00 | 91 | 1018.1 |
| 20260906073027 | 20 | 111 | 4.8 | 14.5 | 0.00 | 0.00 | 0.00 | 91 | 1018.2 |
| 20260906072515 | 20 | 118 | 6.4 | 14.5 | 0.00 | 0.00 | 0.00 | 91 | 1018.1 |
| 20260906072013 | 20 | 141 | 6.4 | 12.9 | 0.00 | 0.00 | 0.00 | 91 | 1018.2 |
| 20260906071531 | 20 | 119 | 6.4 | 12.9 | 0.00 | 0.00 | 0.00 | 91 | 1018.2 |
| 20260906071020 | 20 | 129 | 6.4 | 12.9 | 0.00 | 0.00 | 0.00 | 90 | 1018.2 |
| 20260906070518 | 20 | 124 | 4.8 | 12.9 | 0.00 | 0.00 | 0.00 | 91 | 1018.2 |
| 20260906070032 | 20 | 115 | 3.2 | 9.7 | 0.00 | 0.00 | 0.00 | 91 | 1018.1 |
| 20260906065516 | 20 | 92 | 3.2 | 9.7 | 0.00 | 0.00 | 0.00 | 91 | 1018.2 |
| 20260906065014 | 20 | 94 | 3.2 | 9.7 | 0.00 | 0.00 | 0.00 | 91 | 1018.2 |
| 20260906064530 | 20 | 90 | 1.6 | 6.4 | 0.00 | 0.00 | 0.00 | 91 | 1018.3 |
| 20260906064015 | 20 | 101 | 3.2 | 6.4 | 0.00 | 0.00 | 0.00 | 91 | 1018.3 |
| 20260906063519 | 20 | 93 | 3.2 | 6.4 | 0.00 | 0.00 | 0.00 | 91 | 1018.3 |
| 20260906063026 | 20 | 127 | 3.2 | 6.4 | 0.00 | 0.00 | 0.00 | 91 | 1018.3 |
| 20260906062518 | 20 | 88 | 1.6 | 6.4 | 0.00 | 0.00 | 0.00 | 91 | 1018.4 |
| 20260906062019 | 20 | 78 | 3.2 | 6.4 | 0.00 | 0.00 | 0.00 | 91 | 1018.3 |
| 20260906061531 | 20 | 91 | 3.2 | 6.4 | 0.00 | 0.00 | 0.00 | 91 | 1018.3 |
| 20260906061017 | 20 | 80 | 4.8 | 9.7 | 0.00 | 0.00 | 0.00 | 91 | 1018.3 |
| 20260906060516 | 20 | 84 | 4.8 | 9.7 | 0.00 | 0.00 | 0.00 | 91 | 1018.4 |
| 20260906060035 | 20 | 91 | 4.8 | 9.7 | 0.00 | 0.00 | 0.00 | 91 | 1018.3 |
| 20260906055516 | 20 | 97 | 3.2 | 9.7 | 0.00 | 0.00 | 0.00 | 91 | 1018.3 |
| 20260906055014 | 20 | 90 | 4.8 | 8.0 | 0.00 | 0.00 | 0.00 | 91 | 1018.3 |
| 20260906054532 | 20 | 77 | 3.2 | 4.8 | 0.00 | 0.00 | 0.00 | 91 | 1018.3 |
| 20260906054020 | 20 | 85 | 1.6 | 4.8 | 0.00 | 0.00 | 0.00 | 90 | 1018.3 |
| 20260906053516 | 20 | 98 | 1.6 | 3.2 | 0.00 | 0.00 | 0.00 | 90 | 1018.3 |
| 20260906053032 | 20 | 93 | 0.0 | 3.2 | 0.00 | 0.00 | 0.00 | 90 | 1018.3 |
| 20260906052519 | 20 | 81 | 0.0 | 0.0 | 0.00 | 0.00 | 0.00 | 90 | 1018.3 |
| 20260906052019 | 20 | 65 | 0.0 | 0.0 | 0.00 | 0.00 | 0.00 | 89 | 1018.3 |
| 20260906051535 | 20 | 65 | 0.0 | 0.0 | 0.00 | 0.00 | 0.00 | 89 | 1018.4 |
| 20260906051021 | 20 | 65 | 0.0 | 1.6 | 0.00 | 0.00 | 0.00 | 89 | 1018.3 |
| 20260906050520 | 20 | 65 | 0.0 | 3.2 | 0.00 | 0.00 | 0.00 | 89 | 1018.3 |
| 20260906050009 | 20 | 67 | 1.6 | 3.2 | 0.00 | 0.00 | 0.00 | 89 | 1018.3 |
| 20260906045510 | 20 | 69 | 0.0 | 3.2 | 0.00 | 0.00 | 0.00 | 89 | 1018.4 |
| 20260906045006 | 20 | 69 | 0.0 | 0.0 | 0.00 | 0.00 | 0.00 | 89 | 1018.5 |
| 20260906044516 | 20 | 69 | 0.0 | 0.0 | 0.00 | 0.00 | 0.00 | 89 | 1018.5 |
| 20260906044012 | 21 | 69 | 0.0 | 0.0 | 0.00 | 0.00 | 0.00 | 89 | 1018.5 |
| 20260906043507 | 21 | 82 | 0.0 | 0.0 | 0.00 | 0.00 | 0.00 | 89 | 1018.5 |
| 20260906043028 | 21 | 74 | 0.0 | 0.0 | 0.00 | 0.00 | 0.00 | 89 | 1018.5 |
| 20260906042513 | 21 | 69 | 0.0 | 1.6 | 0.00 | 0.00 | 0.00 | 89 | 1018.6 |
| 20260906042005 | 21 | 68 | 0.0 | 3.2 | 0.00 | 0.00 | 0.00 | 89 | 1018.6 |
| 20260906041528 | 21 | 68 | 1.6 | 4.8 | 0.00 | 0.00 | 0.00 | 89 | 1018.7 |
| 20260906041015 | 21 | 67 | 1.6 | 4.8 | 0.00 | 0.00 | 0.00 | 89 | 1018.7 |
| 20260906040514 | 21 | 54 | 1.6 | 3.2 | 0.00 | 0.00 | 0.00 | 89 | 1018.7 |
| 20260906040016 | 21 | 86 | 1.6 | 3.2 | 0.00 | 0.00 | 0.00 | 89 | 1018.7 |
| 20260906035513 | 20 | 90 | 3.2 | 4.8 | 0.00 | 0.00 | 0.00 | 89 | 1018.7 |
| 20260906035006 | 21 | 56 | 3.2 | 4.8 | 0.00 | 0.00 | 0.00 | 88 | 1018.7 |
| 20260906034508 | 20 | 57 | 3.2 | 3.2 | 0.00 | 0.00 | 0.00 | 88 | 1018.7 |
| 20260906034009 | 20 | 78 | 1.6 | 3.2 | 0.00 | 0.00 | 0.00 | 88 | 1018.7 |
| 20260906033509 | 20 | 78 | 1.6 | 3.2 | 0.00 | 0.00 | 0.00 | 88 | 1018.7 |
| 20260906033018 | 20 | 78 | 1.6 | 3.2 | 0.00 | 0.00 | 0.00 | 88 | 1018.7 |
| 20260906032513 | 20 | 78 | 3.2 | 3.2 | 0.00 | 0.00 | 0.00 | 88 | 1018.7 |
| 20260906032013 | 20 | 83 | 0.0 | 0.0 | 0.00 | 0.00 | 0.00 | 88 | 1018.8 |
| 20260906031531 | 20 | 112 | 0.0 | 0.0 | 0.00 | 0.00 | 0.00 | 88 | 1018.8 |
| 20260906031006 | 21 | 112 | 0.0 | 0.0 | 0.00 | 0.00 | 0.00 | 87 | 1018.8 |
| 20260906030515 | 21 | 112 | 0.0 | 0.0 | 0.00 | 0.00 | 0.00 | 87 | 1018.8 |
| 20260906030029 | 21 | 112 | 0.0 | 0.0 | 0.00 | 0.00 | 0.00 | 87 | 1018.7 |
| 20260906025520 | 21 | 112 | 0.0 | 0.0 | 0.00 | 0.00 | 0.00 | 87 | 1018.6 |
| 20260906025011 | 21 | 144 | 0.0 | 0.0 | 0.00 | 0.00 | 0.00 | 86 | 1018.3 |
| 20260906024526 | 21 | 144 | 0.0 | 0.0 | 0.00 | 0.00 | 0.00 | 86 | 1018.3 |
| 20260906024008 | 21 | 144 | 0.0 | 0.0 | 0.00 | 0.00 | 0.00 | 86 | 1018.3 |
| 20260906023511 | 21 | 144 | 0.0 | 0.0 | 0.00 | 0.00 | 0.00 | 85 | 1018.3 |
| 20260906023013 | 21 | 144 | 0.0 | 0.0 | 0.00 | 0.00 | 0.00 | 85 | 1018.2 |
| 20260906022511 | 21 | 144 | 0.0 | 0.0 | 0.00 | 0.00 | 0.00 | 84 | 1018.1 |
| 20260906022009 | 21 | 144 | 0.0 | 0.0 | 0.00 | 0.00 | 0.00 | 84 | 1018.1 |
| 20260906021512 | 21 | 144 | 0.0 | 0.0 | 0.00 | 0.00 | 0.00 | 83 | 1018.0 |
| 20260906021014 | 21 | 144 | 0.0 | 0.0 | 0.00 | 0.00 | 0.00 | 83 | 1017.9 |
| 20260906020514 | 22 | 144 | 0.0 | 0.0 | 0.00 | 0.00 | 0.00 | 82 | 1017.8 |
| 20260906020031 | 22 | 144 | 0.0 | 0.0 | 0.00 | 0.00 | 0.00 | 81 | 1017.7 |
| 20260906015510 | 22 | 113 | 0.0 | 0.0 | 0.00 | 0.00 | 0.00 | 81 | 1017.5 |
| 20260906015016 | 22 | 111 | 0.0 | 0.0 | 0.00 | 0.00 | 0.00 | 81 | 1017.0 |
| 20260906014532 | 22 | 111 | 0.0 | 0.0 | 0.00 | 0.00 | 0.00 | 80 | 1016.9 |
| 20260906014009 | 22 | 111 | 0.0 | 0.0 | 0.00 | 0.00 | 0.00 | 79 | 1016.9 |
| 20260906013513 | 23 | 111 | 0.0 | 0.0 | 0.00 | 0.00 | 0.00 | 78 | 1016.8 |
| 20260906013010 | 23 | 115 | 0.0 | 0.0 | 0.00 | 0.00 | 0.00 | 77 | 1016.8 |
| 20260906012512 | 23 | 115 | 0.0 | 0.0 | 0.00 | 0.00 | 0.00 | 77 | 1016.7 |
| 20260906012012 | 23 | 117 | 0.0 | 0.0 | 0.00 | 0.00 | 0.00 | 77 | 1016.8 |
| 20260906011517 | 23 | 111 | 0.0 | 1.6 | 0.00 | 0.00 | 0.00 | 75 | 1016.7 |
| 20260906011012 | 24 | 111 | 0.0 | 3.2 | 0.00 | 0.00 | 0.00 | 75 | 1016.7 |
| 20260906010507 | 25 | 140 | 1.6 | 4.8 | 0.00 | 0.00 | 0.00 | 73 | 1016.6 |
| 20260906010022 | 25 | 123 | 1.6 | 6.4 | 0.00 | 0.00 | 0.00 | 72 | 1016.5 |
| 20260906005515 | 25 | 155 | 0.0 | 6.4 | 0.00 | 0.00 | 0.00 | 72 | 1016.5 |
| 20260906005016 | 25 | 129 | 3.2 | 11.3 | 0.00 | 0.00 | 0.00 | 71 | 1016.4 |
| 20260906004533 | 25 | 151 | 3.2 | 12.9 | 0.00 | 0.00 | 0.00 | 71 | 1016.4 |
| 20260906004015 | 25 | 135 | 6.4 | 14.5 | 0.00 | 0.00 | 0.00 | 70 | 1016.4 |
| 20260906003514 | 25 | 130 | 9.7 | 14.5 | 0.00 | 0.00 | 0.00 | 70 | 1016.5 |
| 20260906003015 | 26 | 130 | 6.4 | 12.9 | 0.00 | 0.00 | 0.00 | 69 | 1016.5 |
| 20260906002512 | 26 | 150 | 8.0 | 16.1 | 0.00 | 0.00 | 0.00 | 69 | 1016.5 |
| 20260906002009 | 26 | 128 | 8.0 | 16.1 | 0.00 | 0.00 | 0.00 | 68 | 1016.5 |
| 20260906001535 | 26 | 144 | 4.8 | 12.9 | 0.00 | 0.00 | 0.00 | 69 | 1016.5 |
| 20260906001010 | 27 | 120 | 8.0 | 17.7 | 0.00 | 0.00 | 0.00 | 68 | 1016.5 |
| 20260906000512 | 27 | 123 | 9.7 | 17.7 | 0.00 | 0.00 | 0.00 | 68 | 1016.4 |
| 20260906000024 | 27 | 102 | 6.4 | 19.3 | 0.00 | 0.00 | 0.00 | 68 | 1016.4 |
| 20260905235510 | 27 | 117 | 11.3 | 19.3 | 0.00 | 0.00 | 0.00 | 67 | 1016.3 |
| 20260905235014 | 27 | 161 | 8.0 | 20.9 | 0.00 | 0.00 | 0.00 | 67 | 1016.1 |
| 20260905234529 | 27 | 70 | 12.9 | 20.9 | 0.00 | 0.00 | 0.00 | 67 | 1015.9 |
| 20260905234015 | 28 | 107 | 11.3 | 20.9 | 0.00 | 0.00 | 0.00 | 67 | 1015.9 |
| 20260905233511 | 28 | 159 | 12.9 | 20.9 | 0.00 | 0.00 | 0.00 | 66 | 1015.8 |
| 20260905233026 | 28 | 123 | 9.7 | 22.5 | 0.00 | 0.00 | 0.00 | 66 | 1015.8 |
| 20260905232523 | 28 | 119 | 12.9 | 22.5 | 0.00 | 0.00 | 0.00 | 66 | 1015.8 |
| 20260905232011 | 28 | 126 | 14.5 | 27.4 | 0.00 | 0.00 | 0.00 | 66 | 1015.7 |
| 20260905231528 | 28 | 144 | 14.5 | 27.4 | 0.00 | 0.00 | 0.00 | 65 | 1015.6 |
| 20260905231014 | 29 | 145 | 12.9 | 22.5 | 0.00 | 0.00 | 0.00 | 64 | 1015.4 |
| 20260905230511 | 29 | 131 | 12.9 | 19.3 | 0.00 | 0.00 | 0.00 | 63 | 1015.4 |
| 20260905230023 | 29 | 134 | 8.0 | 16.1 | 0.00 | 0.00 | 0.00 | 63 | 1015.6 |
| 20260905225516 | 29 | 126 | 9.7 | 16.1 | 0.00 | 0.00 | 0.00 | 63 | 1015.8 |
| 20260905225014 | 29 | 74 | 8.0 | 20.9 | 0.00 | 0.00 | 0.00 | 62 | 1015.8 |
| 20260905224527 | 29 | 93 | 12.9 | 22.5 | 0.00 | 0.00 | 0.00 | 62 | 1015.6 |
| 20260905224011 | 29 | 81 | 9.7 | 22.5 | 0.00 | 0.00 | 0.00 | 62 | 1015.5 |
| 20260905223519 | 29 | 92 | 12.9 | 19.3 | 0.00 | 0.00 | 0.00 | 62 | 1015.5 |
| 20260905223042 | 30 | 130 | 6.4 | 19.3 | 0.00 | 0.00 | 0.00 | 62 | 1015.6 |
| 20260905222514 | 30 | 113 | 14.5 | 19.3 | 0.00 | 0.00 | 0.00 | 62 | 1015.7 |
| 20260905222013 | 30 | 140 | 8.0 | 17.7 | 0.00 | 0.00 | 0.00 | 62 | 1015.7 |
| 20260905221534 | 29 | 139 | 8.0 | 17.7 | 0.00 | 0.00 | 0.00 | 62 | 1015.4 |
| 20260905221019 | 29 | 130 | 9.7 | 20.9 | 0.00 | 0.00 | 0.00 | 62 | 1015.4 |
| 20260905220519 | 30 | 109 | 11.3 | 20.9 | 0.00 | 0.00 | 0.00 | 63 | 1015.4 |
| 20260905220019 | 29 | 88 | 11.3 | 24.1 | 0.00 | 0.00 | 0.00 | 63 | 1015.4 |
| 20260905215513 | 29 | 102 | 8.0 | 24.1 | 0.00 | 0.00 | 0.00 | 63 | 1015.4 |
| 20260905215016 | 30 | 102 | 11.3 | 22.5 | 0.00 | 0.00 | 0.00 | 62 | 1015.4 |
| 20260905214527 | 30 | 94 | 11.3 | 22.5 | 0.00 | 0.00 | 0.00 | 63 | 1015.5 |
| 20260905214012 | 29 | 85 | 12.9 | 20.9 | 0.00 | 0.00 | 0.00 | 63 | 1015.5 |
| 20260905213515 | 29 | 148 | 9.7 | 20.9 | 0.00 | 0.00 | 0.00 | 64 | 1015.6 |
| 20260905213028 | 29 | 94 | 9.7 | 20.9 | 0.00 | 0.00 | 0.00 | 64 | 1015.6 |
| 20260905212524 | 29 | 128 | 11.3 | 17.7 | 0.00 | 0.00 | 0.00 | 64 | 1015.7 |
| 20260905212018 | 29 | 126 | 6.4 | 22.5 | 0.00 | 0.00 | 0.00 | 64 | 1015.9 |
| 20260905211524 | 29 | 101 | 11.3 | 22.5 | 0.00 | 0.00 | 0.00 | 64 | 1016.1 |
| 20260905211015 | 29 | 146 | 9.7 | 17.7 | 0.00 | 0.00 | 0.00 | 65 | 1016.3 |
| 20260905210518 | 29 | 128 | 8.0 | 22.5 | 0.00 | 0.00 | 0.00 | 64 | 1016.3 |
| 20260905210045 | 28 | 138 | 12.9 | 22.5 | 0.00 | 0.00 | 0.00 | 64 | 1016.3 |
| 20260905205514 | 28 | 98 | 11.3 | 16.1 | 0.00 | 0.00 | 0.00 | 64 | 1016.5 |
| 20260905205011 | 28 | 167 | 11.3 | 16.1 | 0.00 | 0.00 | 0.00 | 66 | 1016.8 |
| 20260905204523 | 28 | 84 | 8.0 | 16.1 | 0.00 | 0.00 | 0.00 | 66 | 1016.8 |
| 20260905204012 | 28 | 99 | 6.4 | 14.5 | 0.00 | 0.00 | 0.00 | 65 | 1016.8 |
| 20260905203517 | 28 | 105 | 6.4 | 12.9 | 0.00 | 0.00 | 0.00 | 66 | 1017.0 |
| 20260905203027 | 28 | 94 | 6.4 | 12.9 | 0.00 | 0.00 | 0.00 | 66 | 1017.1 |
| 20260905202515 | 28 | 79 | 4.8 | 14.5 | 0.00 | 0.00 | 0.00 | 65 | 1017.1 |
| 20260905202011 | 28 | 29 | 4.8 | 14.5 | 0.00 | 0.00 | 0.00 | 65 | 1017.3 |
| 20260905201532 | 28 | 110 | 4.8 | 11.3 | 0.00 | 0.00 | 0.00 | 65 | 1017.4 |
| 20260905201018 | 28 | 123 | 6.4 | 12.9 | 0.00 | 0.00 | 0.00 | 66 | 1017.4 |
| 20260905200520 | 28 | 121 | 4.8 | 12.9 | 0.00 | 0.00 | 0.00 | 66 | 1017.5 |
| 20260905200016 | 28 | 65 | 6.4 | 12.9 | 0.00 | 0.00 | 0.00 | 66 | 1017.4 |
| 20260905195510 | 27 | 96 | 4.8 | 11.3 | 0.00 | 0.00 | 0.00 | 69 | 1017.4 |
| 20260905195011 | 27 | 137 | 3.2 | 8.0 | 0.00 | 0.00 | 0.00 | 66 | 1017.5 |
| 20260905194520 | 27 | 68 | 3.2 | 9.7 | 0.00 | 0.00 | 0.00 | 67 | 1017.5 |
| 20260905194013 | 27 | 135 | 4.8 | 11.3 | 0.00 | 0.00 | 0.00 | 67 | 1017.6 |
| 20260905193510 | 27 | 75 | 6.4 | 11.3 | 0.00 | 0.00 | 0.00 | 68 | 1017.5 |
| 20260905193023 | 27 | 109 | 1.6 | 11.3 | 0.00 | 0.00 | 0.00 | 69 | 1017.7 |
| 20260905192516 | 27 | 40 | 3.2 | 11.3 | 0.00 | 0.00 | 0.00 | 67 | 1017.8 |
| 20260905192016 | 27 | 74 | 1.6 | 8.0 | 0.00 | 0.00 | 0.00 | 67 | 1017.8 |
| 20260905191520 | 27 | 57 | 4.8 | 8.0 | 0.00 | 0.00 | 0.00 | 67 | 1017.7 |
| 20260905191020 | 27 | 58 | 4.8 | 12.9 | 0.00 | 0.00 | 0.00 | 67 | 1017.7 |
| 20260905190518 | 28 | 51 | 4.8 | 12.9 | 0.00 | 0.00 | 0.00 | 66 | 1017.8 |
| 20260905190017 | 28 | 69 | 8.0 | 14.5 | 0.00 | 0.00 | 0.00 | 66 | 1017.8 |
| 20260905185507 | 28 | 205 | 6.4 | 16.1 | 0.00 | 0.00 | 0.00 | 66 | 1017.7 |
| 20260905185007 | 27 | 94 | 6.4 | 17.7 | 0.00 | 0.00 | 0.00 | 66 | 1017.7 |
| 20260905184531 | 27 | 121 | 8.0 | 17.7 | 0.00 | 0.00 | 0.00 | 66 | 1017.7 |
| 20260905184010 | 27 | 138 | 9.7 | 17.7 | 0.00 | 0.00 | 0.00 | 69 | 1017.6 |
| 20260905183512 | 27 | 146 | 9.7 | 16.1 | 0.00 | 0.00 | 0.00 | 70 | 1017.6 |
| 20260905183035 | 27 | 121 | 9.7 | 16.1 | 0.00 | 0.00 | 0.00 | 70 | 1017.6 |
| 20260905182509 | 27 | 26 | 6.4 | 14.5 | 0.00 | 0.00 | 0.00 | 70 | 1017.7 |
| 20260905182014 | 27 | 125 | 8.0 | 14.5 | 0.00 | 0.00 | 0.00 | 70 | 1017.7 |
| 20260905181535 | 27 | 90 | 3.2 | 12.9 | 0.00 | 0.00 | 0.00 | 69 | 1017.8 |
| 20260905181014 | 27 | 139 | 4.8 | 16.1 | 0.00 | 0.00 | 0.00 | 70 | 1017.9 |
| 20260905180513 | 27 | 128 | 3.2 | 16.1 | 0.00 | 0.00 | 0.00 | 70 | 1018.0 |
| 20260905180037 | 27 | 138 | 4.8 | 14.5 | 0.00 | 0.00 | 0.00 | 71 | 1018.0 |
| 20260905175521 | 27 | 92 | 3.2 | 14.5 | 0.00 | 0.00 | 0.00 | 71 | 1018.2 |
| 20260905175017 | 27 | 133 | 4.8 | 17.7 | 0.00 | 0.00 | 0.00 | 72 | 1018.1 |
| 20260905174520 | 27 | 128 | 9.7 | 17.7 | 0.00 | 0.00 | 0.00 | 73 | 1018.3 |
| 20260905174010 | 26 | 219 | 3.2 | 11.3 | 0.00 | 0.00 | 0.00 | 75 | 1018.3 |
| 20260905173510 | 26 | 107 | 1.6 | 16.1 | 0.00 | 0.00 | 0.00 | 74 | 1018.4 |
| 20260905173029 | 26 | 116 | 9.7 | 16.1 | 0.00 | 0.00 | 0.00 | 76 | 1018.5 |
| 20260905172512 | 25 | 119 | 3.2 | 11.3 | 0.00 | 0.00 | 0.00 | 76 | 1018.5 |
| 20260905172013 | 25 | 195 | 3.2 | 11.3 | 0.00 | 0.00 | 0.00 | 80 | 1018.5 |
| 20260905171528 | 25 | 143 | 6.4 | 11.3 | 0.00 | 0.00 | 0.00 | 80 | 1018.4 |
| 20260905171015 | 24 | 71 | 6.4 | 12.9 | 0.00 | 0.00 | 0.00 | 79 | 1018.4 |
| 20260905170514 | 24 | 183 | 4.8 | 12.9 | 0.00 | 0.00 | 0.00 | 81 | 1018.3 |
| 20260905170029 | 24 | 131 | 4.8 | 9.7 | 0.00 | 0.00 | 0.00 | 81 | 1018.4 |
| 20260905165511 | 24 | 45 | 4.8 | 8.0 | 0.00 | 0.00 | 0.00 | 82 | 1018.4 |
| 20260905165020 | 24 | 69 | 4.8 | 8.0 | 0.00 | 0.00 | 0.00 | 82 | 1018.4 |
| 20260905164533 | 23 | 63 | 3.2 | 8.0 | 0.00 | 0.00 | 0.00 | 82 | 1018.5 |
| 20260905164022 | 23 | 5 | 1.6 | 6.4 | 0.00 | 0.00 | 0.00 | 82 | 1018.4 |
| 20260905163513 | 23 | 34 | 4.8 | 6.4 | 0.00 | 0.00 | 0.00 | 83 | 1018.5 |
| 20260905163018 | 23 | 123 | 1.6 | 4.8 | 0.00 | 0.00 | 0.00 | 86 | 1018.6 |
| 20260905162510 | 23 | 131 | 3.2 | 4.8 | 0.00 | 0.00 | 0.00 | 85 | 1018.6 |
| 20260905162010 | 23 | 92 | 0.0 | 6.4 | 0.00 | 0.00 | 0.00 | 86 | 1018.5 |